Dewpoint
57 57 56 61 56 52 49 47 47 47 46 46 44 44 44 45 44 43 43 43 43 44 44 45 44 44 44 44 44 44 43 42 42 40 41 46 46 46 45 44 44 43 45
55 55 57 58 53 49 48 47 47 47 46 46 46 46 47 47 45 45 44 44 43 44 44 44 44 44 44 45 45 45 43 43 43 39 41 42 44 43 43 44 43 41 43
55 57 59 57 53 50 48 47 46 47 47 47 47 47 47 47 45 45 44 45 45 45 45 44 44 45 45 45 46 46 44 43 44 42 38 36 37 39 42 43 42 41 40
56 57 59 56 54 52 50 47 47 47 47 47 46 46 45 44 45 45 46 45 45 45 45 45 45 45 45 45 46 46 46 44 43 43 43 42 40 37 35 40 41 41 40
56 55 57 56 55 53 50 48 47 47 47 47 46 45 45 45 45 46 45 46 44 45 45 45 44 44 45 45 46 46 47 45 44 43 43 42 42 41 39 37 39 40 41
55 57 58 57 55 53 51 48 47 47 47 47 46 45 44 45 45 45 45 45 44 43 44 44 44 44 45 45 46 46 46 46 46 45 44 43 41 41 40 40 40 40 40
53 55 57 56 54 54 52 50 47 46 46 46 47 46 45 46 44 44 44 44 43 42 43 42 42 43 43 44 45 45 46 46 46 46 45 44 43 43 42 41 40 39 40
52 54 57 56 55 54 52 50 49 48 47 46 46 47 46 46 44 44 44 44 42 41 42 41 42 41 42 42 43 44 45 46 46 46 45 45 44 44 43 42 39 37 37
50 52 56 57 57 55 53 51 50 49 48 47 47 46 47 47 45 44 44 43 41 40 41 39 38 38 39 40 41 42 43 43 44 45 45 45 44 43 42 41 40 38 35
49 51 54 57 57 56 54 52 51 50 49 48 47 47 47 48 46 44 42 39 37 38 38 37 37 38 39 39 40 41 41 41 42 44 43 43 44 43 41 40 40 39 38
49 51 53 56 57 56 55 54 52 51 49 48 48 48 48 47 45 42 39 37 36 35 37 37 38 39 39 40 40 40 41 40 41 42 42 42 42 42 42 41 39 39 40
35 44 52 55 57 55 55 53 52 50 49 48 48 48 48 46 43 40 38 37 36 35 36 37 37 38 38 38 39 38 38 38 39 39 39 40 41 40 41 40 39 38 38
27 30 37 51 56 56 54 53 51 50 49 48 48 47 46 43 41 39 37 36 36 36 36 36 36 35 36 35 35 35 35 35 36 36 36 37 37 37 38 38 38 38 38
28 28 30 33 51 53 54 52 50 50 48 47 47 45 43 41 39 37 36 36 36 35 34 34 33 34 34 34 34 34 34 36 36 37 37 37 36 36 36 37 37 37 37
28 29 29 32 36 49 49 50 49 47 46 45 44 43 40 38 36 36 36 35 34 33 33 32 33 34 35 35 35 35 35 36 36 37 36 36 37 38 38 36 36 36 36
26 30 31 33 34 43 47 46 45 44 43 42 41 39 37 36 35 35 35 34 33 32 32 33 33 35 37 38 37 36 35 35 35 35 36 37 39 40 40 39 39 37 33
22 25 30 32 36 40 46 45 43 41 40 40 38 37 36 35 35 35 34 33 32 32 32 32 34 36 38 39 38 37 36 35 35 36 36 36 37 36 35 34 36 35 39
20 24 31 33 36 40 42 42 40 39 38 38 36 36 35 34 34 33 33 32 32 32 32 32 34 37 38 39 38 38 36 35 35 36 35 34 33 31 32 31 30 28 28
25 28 31 34 36 38 40 40 38 37 36 36 35 35 35 34 33 33 32 33 32 32 32 33 34 35 36 39 36 36 36 35 35 36 33 30 32 33 33 30 28 27 26
30 30 31 31 35 37 38 37 36 35 35 34 34 34 34 33 33 33 32 33 32 32 32 31 33 34 34 38 34 33 33 34 34 31 30 30 30 32 33 29 28 23 25
27 30 31 31 31 35 36 35 34 34 34 33 33 34 34 33 33 33 32 31 31 30 29 28 29 30 29 35 34 33 29 28 29 28 28 27 30 30 32 33 31 27 29
27 29 29 31 32 32 35 34 33 33 33 33 33 33 33 33 33 32 31 30 29 28 27 25 24 25 26 30 34 33 30 28 26 27 27 28 32 31 31 32 33 32 32
26 28 28 29 31 31 32 33 33 32 32 32 32 32 32 32 31 30 29 27 27 26 24 24 23 22 23 26 31 32 33 31 26 27 26 26 33 31 31 32 32 32 31
26 27 28 28 28 30 31 32 32 32 31 31 31 31 31 29 29 28 28 27 26 25 24 23 21 21 21 23 30 30 32 32 32 30 30 31 32 32 30 31 32 31 30
27 28 28 28 28 30 30 30 31 31 30 30 31 31 30 29 27 27 26 25 26 25 23 22 20 19 19 20 24 28 29 30 31 31 30 29 30 29 29 29 29 28 28
29 29 29 29 29 29 30 30 30 31 31 30 30 30 29 26 26 25 24 24 24 26 24 23 22 21 20 23 27 28 28 29 29 30 27 26 28 28 28 27 27 27 27
Wind_Speed
24 27 27 18 19 20 23 22 21 19 19 17 17 13 14 13 10 10 12 10 9 7 5 3 3 3 4 3 4 3 5 7 6 4 4 0 1 1 1 2 4 4 3
20 27 26 24 24 24 24 23 21 20 18 16 12 7 11 8 12 10 11 10 10 7 5 5 5 5 5 5 5 4 2 3 6 3 2 2 1 2 1 1 0 1 3
25 26 29 31 25 27 26 26 26 24 19 17 15 7 10 8 8 10 10 10 10 9 6 6 6 6 5 5 4 4 3 3 3 5 3 2 3 2 2 3 3 5 2
25 24 25 25 24 22 20 23 25 25 20 19 19 17 18 14 9 14 11 12 11 10 8 7 7 6 6 6 5 5 3 3 3 2 4 2 3 2 1 2 4 7 7
29 32 27 29 30 27 27 26 23 23 20 21 19 19 17 13 10 13 15 13 11 11 10 8 8 7 6 5 6 5 3 3 3 2 1 2 3 3 2 2 5 6 5
26 25 31 23 25 23 22 23 23 21 21 21 22 22 21 17 14 16 17 16 12 11 11 10 8 7 7 7 5 5 4 4 4 3 2 2 2 2 2 1 2 5 4
28 28 26 27 25 28 26 21 23 23 23 25 22 23 22 19 23 22 20 18 15 10 14 11 10 7 7 7 6 6 5 5 4 4 3 3 3 3 3 3 2 2 3
28 27 28 30 31 31 30 29 28 27 25 27 25 21 21 19 20 21 18 18 18 16 15 12 11 9 9 7 6 5 6 6 6 5 3 3 3 4 4 4 3 1 1
24 28 26 29 29 28 30 32 34 27 27 28 24 22 22 21 23 21 18 17 15 13 16 14 12 10 9 8 7 7 7 7 6 6 6 5 4 5 4 3 1 2 1
23 23 24 29 28 28 28 25 24 29 27 25 23 24 24 21 20 20 21 19 16 16 16 13 12 11 10 9 9 7 7 8 6 7 6 4 3 3 4 5 3 2 3
17 21 23 24 27 23 24 27 26 26 25 24 22 22 22 22 19 20 20 20 17 17 16 15 13 13 12 11 9 8 9 8 7 7 7 6 5 4 2 2 5 4 2
9 12 16 18 20 24 25 27 25 24 23 22 22 23 22 22 23 22 19 18 18 17 17 15 15 14 13 12 12 11 9 9 9 8 7 7 6 5 4 5 4 3 3
1 0 5 16 25 25 24 23 24 24 23 23 23 21 23 23 24 23 20 18 18 17 16 16 17 16 14 13 12 12 10 10 10 9 10 8 9 8 5 5 6 5 4
5 3 5 7 10 18 25 24 23 24 25 25 25 24 24 24 23 21 19 20 19 19 18 17 16 15 14 13 12 13 12 12 10 9 9 8 8 8 8 8 7 5 6
8 8 7 9 8 12 14 16 18 21 23 25 25 25 21 19 19 20 20 19 20 19 18 17 16 15 15 13 15 14 14 14 12 10 9 8 9 9 8 8 7 7 5
9 9 9 9 11 12 15 17 19 19 19 20 20 18 20 19 20 20 21 21 21 19 17 18 18 17 12 15 15 15 15 14 14 13 10 10 10 9 8 7 6 6 5
7 5 10 11 12 13 14 17 18 19 20 19 16 18 19 18 19 19 19 20 22 19 20 20 19 18 15 16 16 16 14 15 15 15 13 11 8 8 7 5 5 3 4
1 4 8 9 10 9 10 13 17 18 19 17 17 18 19 19 18 20 21 21 20 22 21 21 20 19 15 17 16 16 14 13 13 14 13 13 10 8 8 7 5 3 2
2 4 0 7 9 13 15 17 19 21 21 20 19 20 21 20 22 23 23 21 21 20 20 19 20 21 16 18 17 15 14 14 13 12 11 12 11 10 8 7 6 3 2
5 5 6 4 6 11 15 17 18 18 20 19 21 21 23 24 25 22 22 18 18 18 18 19 18 19 20 19 18 16 14 16 14 12 11 12 12 10 8 7 6 5 4
4 5 5 3 2 5 13 17 18 21 19 16 16 17 17 19 18 18 15 19 18 18 19 20 19 17 19 18 19 18 15 15 15 14 13 11 13 11 9 7 6 5 4
3 4 4 3 4 2 12 17 20 18 17 17 18 18 18 16 17 20 17 18 19 20 20 20 18 15 15 18 19 19 15 15 15 15 13 13 15 12 10 8 8 8 7
3 2 2 3 4 3 2 11 15 14 18 19 19 19 18 18 18 20 19 18 19 18 18 18 17 16 14 14 18 19 18 15 13 11 12 13 16 13 9 9 9 9 6
7 5 5 7 7 5 4 6 7 12 18 20 19 18 20 18 18 17 18 19 19 19 18 17 17 14 14 14 13 14 15 15 12 12 10 11 11 10 9 7 8 8 8
12 9 8 9 10 8 6 6 5 6 14 16 16 17 17 19 18 18 19 20 19 20 20 19 18 20 18 18 18 17 16 14 14 11 9 9 9 10 9 9 9 9 8
10 8 7 6 8 7 5 5 5 5 12 14 14 14 14 14 15 16 12 9 12 16 15 14 17 12 12 16 19 18 17 16 16 11 11 13 13 13 12 11 12 11 12
Wind_Direction
175 176 190 224 164 162 165 168 164 166 156 157 157 161 168 161 164 170 166 158 162 157 157 153 142 125 115 100 73 56 60 39 29 78 51 318 340 82 95 73 67 51 33
183 199 186 185 167 167 169 170 172 170 168 167 170 161 167 173 166 164 167 167 166 169 168 163 149 138 120 116 93 68 82 57 30 83 105 133 304 349 277 280 81 23 31
187 193 192 179 170 174 181 177 180 181 172 165 165 153 149 136 159 178 176 180 172 173 167 163 154 152 145 148 138 118 104 96 31 55 123 131 185 342 310 273 340 352 360
194 203 187 163 184 191 183 180 183 180 176 172 173 178 175 171 190 181 183 182 179 177 171 168 165 162 162 157 160 150 138 122 98 76 54 95 136 126 187 346 50 12 8
193 203 207 180 190 175 189 183 186 181 174 179 181 173 174 185 175 180 182 185 184 178 174 174 176 174 169 164 156 150 152 138 137 126 77 69 56 82 135 286 331 350 11
195 200 207 197 186 179 184 175 180 185 180 186 185 183 184 188 181 181 185 186 185 180 178 174 178 180 172 170 169 174 168 144 135 134 127 156 145 119 112 112 332 333 316
198 199 185 186 185 185 185 177 178 188 192 187 197 189 190 188 180 179 183 184 185 187 188 180 179 184 180 166 159 158 154 160 159 156 146 145 142 147 137 123 98 21 311
197 196 190 187 188 191 184 179 183 193 196 191 194 193 189 191 186 182 189 192 190 188 185 183 178 176 170 167 164 164 174 169 171 176 170 155 141 134 129 140 131 118 312
201 194 189 191 192 189 190 190 181 193 194 196 189 191 193 192 191 186 186 189 189 184 181 175 174 171 169 170 168 175 183 176 178 184 181 173 171 158 137 116 63 162 160
204 203 192 194 192 190 186 183 188 191 191 191 187 191 193 189 188 179 185 176 174 168 170 170 172 171 169 170 171 178 178 165 171 169 161 167 161 163 151 164 177 224 235
211 200 194 186 192 187 180 186 185 186 186 186 185 186 185 185 181 179 174 175 167 168 173 173 173 172 168 171 172 173 167 163 158 158 160 159 150 139 142 197 160 191 214
180 194 196 185 179 181 182 188 185 185 182 180 181 186 179 177 181 180 176 175 176 175 175 174 170 174 172 168 168 162 157 158 153 149 142 141 139 126 120 119 113 132 109
358 172 193 188 184 189 187 185 184 185 176 176 178 179 180 179 181 180 176 176 174 177 173 169 169 170 167 160 159 155 149 145 146 146 146 144 134 130 120 108 104 91 78
256 280 272 240 208 191 185 184 183 180 177 176 179 182 182 183 177 175 174 176 172 173 173 172 171 169 166 160 153 152 149 144 141 136 136 134 136 140 123 108 106 99 100
246 247 241 233 232 192 180 188 182 177 175 175 178 182 178 172 170 172 174 170 173 175 173 167 166 164 161 163 160 157 154 150 146 139 132 132 128 127 131 129 121 117 111
250 249 250 239 231 213 195 179 174 169 166 175 177 168 168 171 175 173 173 174 175 174 168 166 163 167 166 168 161 157 158 158 155 153 145 142 142 138 126 124 131 135 131
233 230 235 239 229 215 195 188 174 164 168 170 171 171 168 168 174 172 169 176 175 168 172 172 171 170 166 164 163 162 162 163 164 164 162 161 157 142 135 114 114 118 181
179 219 217 217 217 201 184 167 165 168 172 170 171 171 169 172 167 167 175 181 172 174 175 178 177 170 174 170 167 162 164 161 163 167 172 166 160 151 144 140 136 123 114
40 61 285 222 202 193 181 171 174 175 176 178 174 173 171 170 173 182 182 179 174 180 180 179 176 177 176 174 171 164 163 163 169 171 172 168 165 161 150 148 155 155 163
60 33 6 17 202 196 176 174 183 185 193 189 185 179 178 179 184 183 179 178 180 182 178 181 179 178 179 179 176 172 166 170 173 178 179 173 170 167 164 158 170 192 223
48 43 39 48 29 209 185 190 190 199 197 187 181 180 182 184 182 176 177 175 175 173 179 184 186 183 181 183 182 179 176 179 181 183 184 183 176 174 181 186 195 213 199
45 45 34 15 348 32 193 202 204 204 189 185 186 186 184 180 176 179 179 177 175 180 183 183 187 190 185 185 188 188 188 185 183 189 190 189 186 183 191 209 231 239 243
38 60 15 342 328 321 216 226 227 192 189 192 193 189 183 182 178 181 182 179 178 181 184 185 187 190 187 188 192 193 193 189 188 185 186 187 188 192 210 233 238 240 224
10 12 356 339 325 312 280 249 248 203 191 195 195 185 186 181 178 183 183 185 186 187 188 189 191 188 189 191 184 192 194 192 185 184 185 187 191 207 223 229 243 239 232
8 356 348 336 314 318 294 291 270 213 199 192 188 185 185 184 182 187 188 193 198 193 190 193 187 184 193 197 190 188 189 188 188 181 190 201 206 217 230 240 242 240 236
27 20 360 329 326 335 297 290 280 228 193 187 181 177 176 176 179 179 181 200 191 192 196 190 186 193 191 182 187 188 194 197 192 182 199 207 212 222 231 241 248 244 246